User: anonymous   Login
Location: Unspecified
(0.0000°N, 0.0000°E)
Time: 22:05:31
(UTC+02:00)
Language:

Transit 2A - Orbit

View from above orbital plane
View from above orbital plane
View from above satellite
View from above satellite

Ground track
Ground track

The orbit data is extracted from the following two-line orbital elements,

1 00045U 60007A   16207.39201338 -.00000007  00000-0  25233-4 0  9994
2 00045  66.6936 170.5760 0263438 271.3315  85.7621 14.33498801918728
Epoch (UTC): 25 July 2016 09:24:29
Eccentricity: 0.0263438
inclination: 66.6936°
perigee height: 591 km
apogee height: 968 km
right ascension of ascending node: 170.5760°
argument of perigee: 271.3315°
revolutions per day: 14.33498801
mean anomaly at epoch: 85.7621°
orbit number at epoch: 91872

The dashed part of the orbit path shows where the satellite is in the earth's shadow,  

DLR